This demonstration page uses our WeatherBlox Daily Observations layout. Learn more.

Hourly Observations for January 21, 2017

Temp ( °F °C ) Dew Point ( °F °C ) Humidity (%) Winds ( mph kmh ) Pressure ( in mb ) Visibility ( mi km ) Precip ( " mm )
12:54 am 00:54 Mostly Cloudy with Fog 40 4.4 40 4.4 100 100 S 3 6 29.41 996 0.25 0.402335 0 0
1:15 am 01:15 Mostly Cloudy with Fog 39 3.9 39 3.9 100 100 S 5 7 29.47 998 0.5 0.80467 0 0
1:54 am 01:54 Mostly Cloudy with Mist and Fog 40 4.4 40 4.4 100 100 SW 6 9 29.41 996 0.75 1.207005 0 0
2:02 am 02:02 Cloudy with Mist and Fog 39 4 39 4 100 100 W 5 7 29.47 998 2 3.21868 0 0
2:11 am 02:11 Cloudy with Mist and Fog 40 4.4 40 4.4 100 100 SSW 5 7 29.47 998 6 9.65604 0 0
2:47 am 02:47 Cloudy 40 4.4 39 3.9 97 97 SW 6 9 29.47 998 9 14.48406 0 0
2:54 am 02:54 Cloudy 40 4.4 39 3.9 97 97 SW 6 9 29.41 996 9 14.48406 0 0
3:54 am 03:54 Cloudy with Mist and Fog 39 3.9 38 3.3 96 96 S 3 6 29.41 996 6 9.65604 0 0
4:01 am 04:01 Cloudy 39 3.9 39 3.9 100 100 SSW 3 6 29.47 998 8 12.87472 0 0
4:54 am 04:54 Mostly Cloudy 37 2.8 36 2.2 96 96 S 5 7 29.41 996 8 12.87472 0 0
5:12 am 05:12 Mostly Cloudy with Mist and Fog 37 3 36 2 93 93 WSW 6 9 29.47 998 6 9.65604 0 0
5:35 am 05:35 Cloudy with Mist and Fog 37 2.8 36 2.2 96 96 WSW 3 6 29.47 998 2.5 4.02335 0 0
5:54 am 05:54 Cloudy with Mist and Fog 36 2.2 36 2.2 100 100 S 3 6 29.41 996 1 1.60934 0 0
6:35 am 06:35 Mostly Cloudy with Mist and Fog 35 1.7 34 1.1 96 96 SW 3 6 29.47 998 2.5 4.02335 0 0
6:54 am 06:54 Mostly Cloudy with Mist and Fog 35 1.7 34 1.1 96 96 SW 5 7 29.44 997 2.5 4.02335 0 0
7:01 am 07:01 Clear 35 1.7 33 0.6 93 93 Calm 29.5 999 10 16.0934 0 0
7:54 am 07:54 Sunny 34 1.1 32 0 92 92 VRB 3 6 29.45 997 8 12.87472 0 0
8:54 am 08:54 Sunny 35 1.7 34 1.1 96 96 Calm 29.48 998 8 12.87472 0 0
9:54 am 09:54 Sunny 40 4.4 36 2.2 86 86 W 7 11 29.47 998 10 16.0934 0 0
10:54 am 10:54 Sunny 45 7.2 38 3.3 77 77 WSW 3 6 29.48 998 10 16.0934 0 0
11:54 am 11:54 Sunny 47 8.3 40 4.4 77 77 SW 7 11 29.48 998 10 16.0934 0 0
12:54 pm 12:54 Sunny 50 10 40 4.4 68 68 SSW 10 17 29.46 998 10 16.0934 0 0
1:54 pm 13:54 Sunny 51 10.6 38 3.3 61 61 SSW 9 15 29.46 998 10 16.0934 0 0
2:54 pm 14:54 Sunny 52 11.1 37 2.8 57 57 W 9 15 29.46 998 10 16.0934 0 0
3:54 pm 15:54 Sunny 53 11.7 38 3.3 57 57 WSW 6 9 29.47 998 10 16.0934 0 0
4:54 pm 16:54 Sunny 52 11.1 37 2.8 57 57 WNW 5 7 29.49 999 10 16.0934 0 0
5:54 pm 17:54 Clear 42 5.6 36 2.2 79 79 Calm 29.52 1000 10 16.0934 0 0
6:54 pm 18:54 Clear 38 3.3 34 1.1 86 86 Calm 29.55 1001 10 16.0934 0 0
7:54 pm 19:54 Clear 34 1.1 31 -0.6 89 89 NNW 5 7 29.56 1001 10 16.0934 0 0
8:54 pm 20:54 Clear 35 1.7 32 0 89 89 NNW 3 6 29.58 1002 10 16.0934 0 0
9:54 pm 21:54 Clear 30 -1.1 29 -1.7 96 96 Calm 29.59 1002 10 16.0934 0 0
10:54 pm 22:54 Clear 28 -2.2 26 -3.3 92 92 Calm 29.6 1002 10 16.0934 0 0
11:54 pm 23:54 Clear 31 -0.6 29 -1.7 92 92 N 3 6 29.6 1003 10 16.0934 0 0

Powered by AerisWeather